Tracking 35237 objects as of 6-Sep-2026
HD Live streaming from Space Station
objects crossing your sky now

FALCON 9 R/B

Track FALCON 9 R/B now!
10-day predictions


NORAD ID: 44480
Int'l Code: 2019-050B
Launch date: August 6, 2019
Source: United States (US)
Launch site: AIR FORCE EASTERN TEST RANGE (AFETR)

Note: This is a ROCKET BODY
Your satellite tracking list
Your tracking list is empty




NASA's NSSDC Master Catalog

Two Line Element Set (TLE):
1 44480U 19050B   26248.67059222  .00028035  00000-0  79705-3 0  9999
2 44480  26.2118  41.8675 5696299 245.1160  46.7983  4.59231381 83934
Source of the keplerian elements: AFSPC